DW7126 Weather Reports


Display with metric or nautical units.
time (UTC)temp
F
wind
direction
speed
MPH
gust
MPH
rain 1hr
in
rain 24hr
in
rain mn
in
humidity
%
barometer
mb
20260503190152 61 327 5.0 12.0 0.00 0.00 0.00 79 1014.7
20260503184506 61 321 6.0 15.0 0.00 0.00 0.00 79 1014.6
20260503184408 62 321 7.0 15.0 0.00 0.00 0.00 79 1020.1
20260503183359 62 328 8.0 14.0 0.00 0.00 0.00 80 1014.6
20260503182354 62 344 9.0 15.0 0.00 0.00 0.00 80 1014.6
20260503180427 62 321 5.0 11.0 0.00 0.00 0.00 84 1014.5
20260503180031 61 350 5.0 14.0 0.00 0.00 0.00 84 1014.5
20260503175411 62 341 8.0 14.0 0.00 0.00 0.00 82 1020.1
20260503172408 62 306 5.0 11.0 0.00 0.00 0.00 83 1014.7
20260503171426 63 324 6.0 13.0 0.00 0.00 0.00 81 1014.8
20260503140224 63 297 8.0 13.0 0.00 0.00 0.00 84 1015.1
20260503131419 63 290 8.0 13.0 0.00 0.00 0.00 84 1015.1
20260503072404 58 24 0.0 1.0 0.00 0.83 0.00 91 1014.8
20260503071423 57 24 0.0 0.0 0.00 0.83 0.00 91 1014.8
20260503070414 56 18 0.0 0.0 0.00 0.83 0.00 91 1014.8
20260503053356 56 322 0.0 0.0 0.00 0.98 0.00 90 1014.4
20260503052409 56 303 0.0 0.0 0.00 0.98 0.00 90 1014.3
20260503045431 57 303 0.0 2.0 0.00 1.02 0.00 90 1014.4
20260503035430 57 251 0.0 2.0 0.00 1.06 0.00 90 1014.3
20260503034409 57 250 1.0 2.0 0.00 1.06 0.00 90 1014.4
20260503032413 58 257 0.0 1.0 0.00 1.06 0.00 90 1014.5
20260503031413 58 259 0.0 2.0 0.00 1.06 0.00 90 1014.5
20260503025359 58 266 2.0 5.0 0.00 1.06 0.00 90 1014.6
20260503024356 58 255 3.0 5.0 0.00 1.06 0.00 90 1014.7
20260503022424 58 248 2.0 4.0 0.00 1.06 0.00 90 1014.7
20260503015356 59 254 2.0 6.0 0.00 1.06 0.00 91 1014.8
20260503014501 58 263 2.0 4.0 0.00 0.21 0.00 91 1014.9
20260503014433 59 260 2.0 5.0 0.00 1.06 0.00 91 1020.4
20260503013425 58 263 5.0 10.0 0.00 1.06 0.00 91 1015.0
20260503012418 58 271 3.0 5.0 0.00 1.06 0.00 91 1015.1
20260503011418 58 266 2.0 5.0 0.00 1.06 0.00 91 1015.2
20260503010017 58 265 1.0 5.0 0.00 0.21 0.00 91 1015.1
20260503005356 58 264 1.0 4.0 0.00 1.06 0.00 91 1015.3
20260503004531 57 243 1.0 4.0 0.00 0.21 0.00 91 1015.4
20260503003358 58 240 2.0 4.0 0.00 1.06 0.00 91 1015.5
20260503002412 58 254 2.0 5.0 0.00 1.06 0.00 91 1015.5
20260503001401 58 245 2.0 3.0 0.00 1.06 0.00 91 1015.6
20260502234532 58 245 1.0 4.0 0.00 0.21 0.00 91 1015.8
20260502234409 59 248 2.0 4.0 0.00 1.06 0.00 91 1021.3
20260502233407 59 238 2.0 4.0 0.00 1.06 0.00 91 1016.0
20260502233003 59 219 2.0 4.0 0.00 0.21 0.00 91 1015.9
20260502232409 59 228 2.0 5.0 0.00 1.06 0.00 91 1021.4
20260502225404 59 229 3.0 6.0 0.00 1.06 0.21 91 1016.1
20260502224405 59 225 3.0 6.0 0.00 1.06 0.21 91 1016.2
20260502223403 59 240 5.0 7.0 0.00 1.06 0.21 92 1016.2
20260502223009 59 232 4.0 7.0 0.00 0.21 0.21 92 1016.1
20260502222421 59 242 4.0 5.0 0.00 1.06 0.21 92 1016.2
20260502204415 60 227 5.0 8.0 0.00 1.06 0.21 90 1016.0
20260502203424 60 232 7.0 8.0 0.00 1.06 0.21 90 1015.9
20260502203012 60 229 7.0 8.0 0.00 0.21 0.21 90 1015.8
20260502202300 60 234 6.0 9.0 0.00 1.06 0.21 89 1015.9
20260502195420 61 240 8.0 11.0 0.00 1.06 0.21 89 1015.6
20260502194528 61 246 8.0 11.0 0.00 0.21 0.21 89 1015.5
20260502193421 61 250 8.0 13.0 0.00 1.06 0.21 89 1015.5
20260502193018 61 227 7.0 13.0 0.00 0.21 0.21 89 1015.3
20260502191410 61 217 11.0 16.0 0.00 1.06 0.21 89 1015.4